24h Messdaten per 27.01.2023 um 13:07:02

Datum Zeit Luftdruck Temp Balkon Feuchte Balkon Temp Strasse Feuchte Strasse Wind km/h Wind Boe Wind aus (Grad) Regen l/15min Sonne h/Monat
27.01.23 13:07:02 1022 3.8 44 0.0
27.01.23 13:02:02 1022 3.7 46 0.0
27.01.23 12:57:02 1022 3.2 46 0.0
27.01.23 12:52:02 1023 3.1 46 0.0
27.01.23 12:47:02 1023 3.1 46 0.0
27.01.23 12:42:02 1023 3.2 46 0.0
27.01.23 12:37:01 1023 3.2 46 0.0
27.01.23 12:32:01 1023 3.2 46 0.0
27.01.23 12:27:01 1023 3.2 47 0.0
27.01.23 12:22:02 1023 3.0 47 0.0
27.01.23 12:17:02 1023 2.9 47 0.0
27.01.23 12:12:02 1023 2.9 47 1.4 2.9 292.5 0.0
27.01.23 12:07:02 1023 2.8 47 1.1 2.9 247.5 0.0
27.01.23 12:02:02 1023 2.8 47 2.2 0.0 315 0.0
27.01.23 11:57:02 1023 2.8 47 2.2 0.0 315 0.0
27.01.23 11:52:02 1023 2.8 47 1.4 1.8 247.5 0.0
27.01.23 11:47:02 1023 2.7 47 1.4 1.8 22.5 0.0
27.01.23 11:42:02 1023 2.6 47 1.8 0.0 270 0.0
27.01.23 11:37:02 1023 2.6 47 1.4 3.2 247.5 0.0
27.01.23 11:32:02 1023 2.6 47 1.4 3.2 247.5 0.0
27.01.23 11:27:02 1023 2.7 47 1.4 1.4 315 0.0
27.01.23 11:22:01 1023 2.6 48 1.8 0.0 270 0.0
27.01.23 11:17:01 1023 2.5 48 1.8 5.4 22.5 0.0
27.01.23 11:12:01 1023 1.8 6.8 337.5 0.0
27.01.23 11:07:02 1023 2.5 48 1.1 0.0 315 0.0
27.01.23 11:02:02 1023 2.5 49 1.1 0.0 315 0.0
27.01.23 10:57:02 1023 2.6 49 1.4 2.5 315 0.0
27.01.23 10:52:02 1023 2.5 50 1.4 1.4 315 0.0
27.01.23 10:47:02 1023 2.4 51 2.2 2.9 247.5 0.0
27.01.23 10:42:02 1023 2.4 51 2.2 2.9 247.5 0.0
27.01.23 10:37:02 1022 2.4 53 1.8 3.2 225 0.0
27.01.23 10:32:02 1022 2.3 53 1.8 3.2 225 0.0
27.01.23 10:27:02 1022 2.1 54 2.2 2.2 247.5 0.0
27.01.23 10:22:01 1022 2.1 55 2.5 3.6 315 0.0
27.01.23 10:17:01 1022 2.0 56 2.9 2.2 270 0.0
27.01.23 10:12:01 1022 1.9 56 2.9 2.9 180 0.0
27.01.23 10:07:01 1.8 57 2.2 1.8 270 0.7
27.01.23 10:02:01 1022 1.8 57 1.8 3.2 270 0.0
27.01.23 09:57:01 1022 1.8 58 1.4 3.6 180 0.0
27.01.23 09:52:02 1022 1.8 58 1.8 4.7 292.5 0.0
27.01.23 09:47:02 1022 1.6 58 1.8 4.0 247.5 0.0
27.01.23 09:42:02 1022 1.5 58 1.4 2.9 270 0.0
27.01.23 09:37:02 1022 1.1 0.0 22.5 0.0
27.01.23 09:32:02 1022 1.4 58 1.4 2.9 315 0.0
27.01.23 09:27:01 1022 1.3 58 0.7 2.2 270 0.0
27.01.23 09:22:02 1022 0.7 0.0 315 0.0
27.01.23 09:17:02 1022 1.3 58 1.4 2.2 225 0.0
27.01.23 09:12:02 1022 1.2 58 1.4 2.2 315 0.0
27.01.23 09:07:01 1022 1.2 58 1.1 2.2 247.5 0.0
27.01.23 09:02:01 1022 1.1 58 0.4 2.9 225 0.0
27.01.23 08:57:01 1022 1.1 58 0.0 0.0 315 0.0
27.01.23 08:52:02 1022 1.1 58 0.0 0.0 0 0.0
27.01.23 08:47:02 1022 1.1 58 0.0 0.0 292.5 0.0
27.01.23 08:42:02 1022 1.0 57 0.0 0.0 45 0.0
27.01.23 08:37:01 1022 1.0 58 0.0 1.4 67.5 0.0
27.01.23 08:32:01 1022 0.0 0.0 315 0.0
27.01.23 08:27:01 1022 1.0 58 0.0 0.0 337.5 0.0
27.01.23 08:22:01 1022 1.0 58 0.0 0.0 337.5 0.0
27.01.23 08:17:01 1022 1.0 58 0.0 0.0 337.5 0.0
27.01.23 08:12:01 1022 1.0 58 0.0 0.0 45 0.0
27.01.23 08:07:01 1022 1.0 58 0.0 0.0 337.5 0.0
27.01.23 08:02:01 1022 0.9 58 0.0 0.0 22.5 0.0
27.01.23 07:57:01 1022 0.9 58 0.0 0.0 22.5 0.0
27.01.23 07:52:01 1022 0.8 58 0.0 0.0 22.5 0.0
27.01.23 07:47:01 1022 0.8 58 0.0 2.9 67.5 0.0
27.01.23 07:42:01 1022 0.9 58 0.0 0.0 22.5 0.0
27.01.23 07:37:03 1022 0.9 58 0.7 0.0 337.5 0.0
27.01.23 07:32:02 1022 0.9 58 0.7 0.0 315 0.0
27.01.23 07:27:02 1022 0.8 59 0.4 1.4 180 0.0
27.01.23 07:22:01 1022 0.8 59 0.4 0.0 45 0.0
27.01.23 07:17:01 1022 0.8 59 0.7 0.0 247.5 0.0
27.01.23 07:12:01 1022 0.8 59 1.1 1.8 247.5 0.0
27.01.23 07:07:02 1022 0.8 59 0.7 3.6 22.5 0.0
27.01.23 07:02:02 1021 0.7 60 0.4 0.0 247.5 0.0
27.01.23 06:57:02 1021 0.7 60 0.0 0.0 315 0.0
27.01.23 06:52:02 1021 0.7 60 0.4 1.4 180 0.0
27.01.23 06:47:02 1021 0.7 60 0.4 0.0 67.5 0.0
27.01.23 06:42:01 1021 0.7 61 0.7 1.8 22.5 0.0
27.01.23 06:37:02 1021 1.4 0.0 270 0.0
27.01.23 06:32:02 1021 0.7 61 1.4 6.8 225 0.0
27.01.23 06:27:02 1021 0.7 62 0.4 2.2 22.5 0.0
27.01.23 06:22:02 1021 0.6 62 0.0 0.0 315 0.0
27.01.23 06:17:02 1021 0.6 63 0.4 0.0 0 0.0
27.01.23 06:12:02 1021 0.6 63 0.7 1.8 337.5 0.0
27.01.23 06:07:02 1021 0.7 0.0 22.5 0.0
27.01.23 06:02:02 1021 0.5 64 0.7 1.4 22.5 0.0
27.01.23 05:57:02 1021 0.5 64 0.7 2.2 180 0.0
27.01.23 05:52:02 1021 0.6 65 0.4 0.0 22.5 0.0
27.01.23 05:47:02 1021 0.6 65 0.4 0.0 22.5 0.0
27.01.23 05:42:01 1021 0.7 66 0.0 0.0 292.5 0.0
27.01.23 05:37:02 1021 0.7 66 0.4 0.0 90 0.0
27.01.23 05:32:02 1021 0.6 67 0.7 0.0 67.5 0.0
27.01.23 05:27:02 1021 0.7 67 0.7 1.8 180 0.7
27.01.23 05:22:01 1021 0.7 68 0.7 0.0 337.5 0.0
27.01.23 05:17:01 1021 0.7 68 0.4 1.4 45 0.0
27.01.23 05:12:01 1021 0.7 68 0.4 2.9 315 0.0
27.01.23 05:07:02 1021 0.9 69 0.4 0.0 22.5 0.0
27.01.23 05:02:02 1021 0.7 4.0 135 0.0
27.01.23 04:57:02 1021 1.1 69 0.7 1.8 202.5 0.0
27.01.23 04:52:01 1021 1.2 70 0.7 4.7 270 0.0
27.01.23 04:47:01 1021 1.1 70 1.1 1.8 270 0.0
27.01.23 04:42:01 1021 1.1 70 1.4 0.0 337.5 0.0
27.01.23 04:37:01 1021 1.1 70 2.5 3.6 180 0.0
27.01.23 04:32:01 1021 1.1 71 2.5 4.0 247.5 0.0
27.01.23 04:27:01 1021 1.1 71 3.2 5.4 315 0.0
27.01.23 04:22:01 1021 1.1 71 4.0 4.0 270 0.0
27.01.23 04:17:01 1021 1.2 71 4.0 4.0 270 0.0
27.01.23 04:12:01 1021 1.1 71 2.5 4.0 315 0.0
27.01.23 04:07:01 1021 1.1 71 1.4 2.2 270 0.0
27.01.23 04:02:01 1021 1.1 71 1.8 1.8 292.5 0.0
27.01.23 03:57:01 1021 1.1 71 2.5 4.7 0 0.0
27.01.23 03:52:02 1021 1.0 71 2.5 2.5 90 0.0
27.01.23 03:47:01 1021 1.0 71 1.1 2.5 292.5 0.0
27.01.23 03:42:01 1.0 71 0.7 3.2 292.5 0.0
27.01.23 03:37:02 1020 0.9 71 1.1 2.2 270 0.0
27.01.23 03:32:02 1020 1.4 0.0 292.5 0.0
27.01.23 03:27:02 1020 0.8 71 1.4 2.2 270 0.0
27.01.23 03:22:02 1020 0.8 71 1.4 3.6 292.5 0.0
27.01.23 03:17:02 1020 0.8 71 0.7 1.8 315 0.0
27.01.23 03:12:02 1020 0.8 71 0.4 0.0 180 0.0
27.01.23 03:07:02 1.8 0.0 315 0.0
27.01.23 03:02:02 1020 0.8 71 2.9 0.0 135 0.0
27.01.23 02:57:02 1020 0.8 71 2.2 3.2 22.5 0.0
27.01.23 02:52:02 1020 0.8 71 2.2 5.8 180 0.0
27.01.23 02:47:01 1020 2.2 3.2 225 0.0
27.01.23 02:42:01 1020 0.8 71 1.4 5.4 225 0.0
27.01.23 02:37:01 1020 0.9 71 1.4 2.9 315 0.0
27.01.23 02:32:01 1020 0.9 71 1.1 3.2 0 0.0
27.01.23 02:27:01 1020 0.9 71 0.7 0.0 315 0.0
27.01.23 02:22:02 1020 0.9 71 0.0 0.0 315 0.0
27.01.23 02:17:02 1020 0.8 71 0.4 1.8 22.5 0.0
27.01.23 02:12:01 1020 0.8 71 0.4 0.0 270 0.0
27.01.23 02:07:02 1020 0.8 71 0.4 0.0 315 0.0
27.01.23 02:02:02 0.9 71 0.0 0.0 337.5 0.0
27.01.23 01:57:02 1020 0.8 71 0.0 0.0 45 0.0
27.01.23 01:52:01 1020 0.8 71 0.0 0.0 22.5 0.7
27.01.23 01:47:01 1020 0.7 71 0.4 1.8 67.5 0.0
27.01.23 01:42:01 1020 0.5 70 0.4 0.0 22.5 0.0
27.01.23 01:37:01 1020 0.3 70 0.4 0.0 22.5 0.0
27.01.23 01:32:01 1020 0.4 71 0.4 1.4 315 0.0
27.01.23 01:27:01 1020 0.4 71 0.4 0.0 22.5 0.0
27.01.23 01:22:01 1020 0.3 71 0.0 0.0 22.5 0.0
27.01.23 01:17:01 1020 0.4 71 0.0 0.0 315 0.0
27.01.23 01:12:01 1020 0.4 71 0.0 0.0 337.5 0.0
27.01.23 01:07:01 1020 0.4 71 0.0 0.0 45 0.0
27.01.23 01:02:01 1020 0.5 71 0.0 0.0 247.5 0.0
27.01.23 00:57:01 1020 0.4 70 0.0 0.0 337.5 0.0
27.01.23 00:52:02 1020 0.4 70 0.0 1.4 22.5 0.0
27.01.23 00:47:02 1020 0.3 70 0.0 0.0 270 0.0
27.01.23 00:42:02 1020 0.3 70 0.0 1.4 315 0.0
27.01.23 00:37:01 1020 0.4 70 0.0 0.0 292.5 0.0
27.01.23 00:32:01 1020 0.5 70 0.0 0.0 0 0.0
27.01.23 00:27:01 1020 0.5 70 0.0 2.9 112.5 0.0
27.01.23 00:22:02 1020 0.7 70 0.0 0.0 292.5 0.0
27.01.23 00:17:02 1020 0.8 70 0.0 0.0 67.5 0.0
27.01.23 00:12:01 1020 0.8 70 0.0 0.0 135 0.0
27.01.23 00:07:02 1020 0.7 70 0.0 0.0 112.5 0.0
27.01.23 00:02:02 1020 0.7 70 0.0 0.0 45 0.0
26.01.23 23:57:02 1020 0.6 70 0.0 0.0 67.5 0.0
26.01.23 23:52:02 1020 0.7 70 0.0 0.0 67.5 0.0
26.01.23 23:47:02 1020 0.6 70 0.0 0.0 22.5 0.0
26.01.23 23:42:01 1020 0.6 70 0.0 0.0 135 0.0
26.01.23 23:37:02 1020 0.6 70 0.0 0.0 45 0.0
26.01.23 23:32:02 1020 0.7 70 0.0 0.0 67.5 0.0
26.01.23 23:27:02 1020 0.7 70 0.0 0.0 112.5 0.0
26.01.23 23:22:01 1020 0.8 70 0.0 0.0 67.5 0.0
26.01.23 23:17:01 1020 0.9 69 0.0 0.0 135 0.0
26.01.23 23:12:01 1020 0.9 70 0.0 0.0 45 0.0
26.01.23 23:07:01 1020 1.1 70 0.0 0.0 45 0.0
26.01.23 23:02:01 1020 1.1 70 0.0 0.0 90 0.0
26.01.23 22:57:01 1020 1.0 70 0.0 0.0 90 0.0
26.01.23 22:52:02 1020 1.0 69 0.0 0.0 67.5 0.0
26.01.23 22:47:02 1020 1.1 69 0.0 0.0 90 0.0
26.01.23 22:42:01 1020 1.2 69 0.0 0.0 22.5 0.0
26.01.23 22:37:01 1020 1.2 69 0.0 0.0 67.5 0.0
26.01.23 22:32:01 1020 1.1 70 0.0 0.0 67.5 0.0
26.01.23 22:27:01 1020 1.0 70 0.0 0.0 67.5 0.0
26.01.23 22:22:02 1020 1.1 70 0.0 0.0 112.5 0.0
26.01.23 22:17:02 1020 1.2 70 0.0 0.0 67.5 0.0
26.01.23 22:12:02 1020 1.1 70 0.0 0.0 90 0.0
26.01.23 22:07:01 1020 1.0 69 0.0 0.0 112.5 0.0
26.01.23 22:02:01 1020 1.1 70 0.0 0.0 67.5 0.0
26.01.23 21:57:01 1020 1.3 70 0.0 0.0 90 0.0
26.01.23 21:52:01 1020 1.2 70 0.0 0.0 90 0.0
26.01.23 21:47:01 1021 1.2 70 0.0 0.0 315 0.0
26.01.23 21:42:01 1021 1.2 70 0.0 0.0 292.5 0.0
26.01.23 21:37:02 1021 1.0 70 0.0 0.0 180 0.0
26.01.23 21:32:01 1021 1.1 70 0.0 0.0 112.5 0.0
26.01.23 21:27:01 1021 1.1 70 0.0 0.0 0 0.0
26.01.23 21:22:02 1021 1.1 70 0.0 0.0 135 0.7
26.01.23 21:17:01 1021 1.0 70 0.0 1.8 67.5 0.0
26.01.23 21:12:01 1021 0.9 70 0.0 0.0 112.5 0.0
26.01.23 21:07:02 1021 0.8 69 0.0 0.0 67.5 0.0
26.01.23 21:02:02 1021 0.8 70 0.0 0.0 45 0.0
26.01.23 20:57:02 1021 0.8 69 0.4 0.0 112.5 0.0
26.01.23 20:52:02 1021 0.5 69 0.4 0.0 45 0.0
26.01.23 20:47:01 1021 0.4 0.0 112.5 0.0
26.01.23 20:42:01 1021 0.5 69 0.4 0.0 67.5 0.0
26.01.23 20:37:02 1021 0.6 69 0.4 1.4 90 0.0
26.01.23 20:32:01 1021 0.5 69 0.7 0.0 112.5 0.0
26.01.23 20:27:01 1021 0.6 69 0.7 0.0 67.5 0.0
26.01.23 20:22:02 1021 0.7 69 0.4 0.0 112.5 0.0
26.01.23 20:17:02 1021 0.4 69 0.0 0.0 112.5 0.0
26.01.23 20:12:02 1021 0.4 69 0.0 0.0 112.5 0.7
26.01.23 20:07:01 1021 0.4 69 0.4 0.0 135 0.0
26.01.23 20:02:01 1021 0.4 69 0.7 0.0 135 0.0
26.01.23 19:57:01 1021 0.3 69 1.1 1.4 67.5 0.0
26.01.23 19:52:01 1021 0.2 69 1.1 2.2 67.5 0.0
26.01.23 19:47:01 1021 0.2 69 1.1 2.2 67.5 0.0
26.01.23 19:42:01 1021 0.2 69 1.1 2.9 90 0.0
26.01.23 19:37:01 1021 0.2 69 1.1 1.8 112.5 0.0
26.01.23 19:32:01 1021 0.3 69 0.4 0.0 180 0.0
26.01.23 19:27:01 1021 0.4 69 0.0 0.0 112.5 0.7
26.01.23 19:22:02 1021 0.5 69 0.0 0.0 67.5 0.0
26.01.23 19:17:02 1021 0.3 69 0.7 0.0 247.5 0.0
26.01.23 19:12:02 1021 0.3 69 1.4 0.0 112.5 0.0
26.01.23 19:07:01 1021 1.8 1.4 112.5 0.0
26.01.23 19:02:01 1021 0.3 69 2.2 2.9 112.5 0.0
26.01.23 18:57:01 1021 0.3 69 2.2 2.9 67.5 0.0
26.01.23 18:52:02 1021 0.3 68 1.8 2.5 112.5 0.0
26.01.23 18:47:02 1021 0.3 69 1.8 1.8 112.5 0.0
26.01.23 18:42:02 1021 0.4 68 2.2 3.6 135 0.0
26.01.23 18:37:02 1021 0.3 68 0.0
26.01.23 18:32:02 1021 0.3 68
26.01.23 18:27:02 1021 0.4 68 0.0
26.01.23 18:22:02 1021 0.4 68 0.0
26.01.23 18:17:02 1021 0.5 68 0.0
26.01.23 18:12:02 1021 0.5 68 0.0
26.01.23 18:07:02 1021 0.5 68 0.0
26.01.23 18:02:02 1021 0.6 68 0.0
26.01.23 17:57:01 1021 0.8 68 0.0
26.01.23 17:52:01 1021 0.8 68 0.7
26.01.23 17:47:01 1021 0.8 68 0.0
26.01.23 17:42:01 1021 0.8 68 0.0
26.01.23 17:37:01 1021 0.7 68 0.0
26.01.23 17:32:01 1021 0.7 68 0.0
26.01.23 17:27:01 1021 0.7 68 0.0
26.01.23 17:22:02 1021 0.6 68 0.0
26.01.23 17:17:02 1021 0.5 68 0.0
26.01.23 17:12:01 1021 0.5 67 0.0
26.01.23 17:07:02 1021 0.4 67 0.0
26.01.23 17:02:01 1021 0.3 67 0.0
26.01.23 16:57:01 1021 0.4 67 0.0
26.01.23 16:52:02 1021 0.4 67 0.0
26.01.23 16:47:02 1021 0.4 67 0.0
26.01.23 16:42:02 1021 0.0
26.01.23 16:37:02 1021 0.3 67 0.0
26.01.23 16:32:02 0.1 67 0.0
26.01.23 16:27:02 1021 0.1 67 0.0
26.01.23 16:22:02 1021 0.0 67 0.0
26.01.23 16:17:02 1021 0.0 66 0.0
26.01.23 16:12:02 1021 -0.1 66 0.0
26.01.23 16:07:01 1021 -0.2 66 0.0
26.01.23 16:02:01 1021 -0.2 66 0.0
26.01.23 15:57:01 1021 -0.3 65 0.0
26.01.23 15:52:02 1021 -0.3 65 0.0
26.01.23 15:47:02 1021 -0.2 65 0.0
26.01.23 15:42:02 1021 -0.2 65 0.0
26.01.23 15:37:02 1021 -0.3 65 0.0
26.01.23 15:32:02 1021 -0.3 65 0.0
26.01.23 15:27:02 1021 -0.3 64 0.0
26.01.23 15:22:02 1021 -0.3 64 0.0
26.01.23 15:17:02 1021 -0.3 64 0.0
26.01.23 15:12:02 1021 -0.3 64 0.0
26.01.23 15:07:01 1021 -0.3 64 0.0
26.01.23 15:02:01 1021 -0.3 64 0.0
26.01.23 14:57:01 1021 -0.3 63 0.0
26.01.23 14:52:02 1021 -0.3 63 0.0
26.01.23 14:47:02 1021 -0.2 63 0.0
26.01.23 14:42:02 1021 -0.3 63 0.0
26.01.23 14:37:02 1021 -0.3 63 0.0
26.01.23 14:32:02 1021 -0.5 62 0.0
26.01.23 14:27:02 1021 -0.4 62 0.0
26.01.23 14:22:02 1021 -0.4 62 0.0
26.01.23 14:17:02 1021 -0.3 62 0.0
26.01.23 14:12:01 1021 -0.4 62 0.0
26.01.23 14:07:01 1021 -0.4 61 0.0
26.01.23 14:02:01 1021 -0.4 61 0.0
26.01.23 13:57:01 1021 -0.5 61 0.0
26.01.23 13:52:02 1021 -0.4 61 0.0
26.01.23 13:47:02 1021 -0.3 61 0.0
26.01.23 13:42:01 1021 -0.5 60 0.0
26.01.23 13:37:02 1021 -0.5 60 0.0
26.01.23 13:32:02 1021 -0.3 60 0.0
26.01.23 13:27:02 1021 0.0
26.01.23 13:22:02 1021 -0.5 60 0.0
26.01.23 13:17:02 1021 -0.6 59 0.0
26.01.23 13:12:02 1021 0.0
Index
© 2002-2021 Thomas Dreßler
Alle Rechte vorbehalten
letzte Scriptänderung 21.03.2021